Time,TemperatureF,DewpointF,PressureIn,WindDirection,WindDirectionDegrees,WindSpeedMPH,WindSpeedGustMPH,Humidity,HourlyPrecipIn,Conditions,Clouds,dailyrainin,SoftwareType,DateUTC
2013-03-19 00:03:00,33.0,32.0,29.85,North,0,0.0,6.0,96,0.03,,,0.27,,2013-03-19 04:03:00,
2013-03-19 00:13:00,33.0,32.0,29.85,North,0,0.0,6.0,96,0.03,,,0.27,,2013-03-19 04:13:00,
2013-03-19 00:23:00,33.0,32.0,29.85,North,0,0.0,5.0,96,0.03,,,0.28,,2013-03-19 04:23:00,
2013-03-19 00:33:00,33.0,32.0,29.85,North,0,0.0,4.0,96,0.03,,,0.28,,2013-03-19 04:33:00,
2013-03-19 00:43:00,33.0,32.0,29.85,North,0,0.0,4.0,96,0.03,,,0.28,,2013-03-19 04:43:00,
2013-03-19 00:53:00,33.0,32.0,29.83,ESE,110,2.0,6.0,96,0.03,,,0.29,,2013-03-19 04:53:00,
2013-03-19 01:02:00,33.0,32.0,29.82,ESE,112,3.0,6.0,96,0.03,,,0.30,,2013-03-19 05:02:00,
2013-03-19 01:12:00,33.0,32.0,29.82,ESE,112,3.0,6.0,96,0.03,,,0.30,,2013-03-19 05:12:00,
2013-03-19 01:22:00,33.0,32.0,29.83,North,0,0.0,4.0,96,0.02,,,0.30,,2013-03-19 05:22:00,
2013-03-19 01:32:00,33.0,32.0,29.82,North,0,0.0,4.0,96,0.03,,,0.31,,2013-03-19 05:32:00,
2013-03-19 01:43:00,33.0,32.0,29.82,North,0,0.0,4.0,96,0.03,,,0.31,,2013-03-19 05:43:00,
2013-03-19 01:52:00,33.0,32.0,29.80,SE,136,1.0,7.0,96,0.02,,,0.31,,2013-03-19 05:52:00,
2013-03-19 02:02:00,34.0,33.0,29.82,North,0,0.0,5.0,96,0.06,,,0.36,,2013-03-19 06:02:00,
2013-03-19 02:12:00,34.0,33.0,29.82,North,0,0.0,5.0,96,0.06,,,0.36,,2013-03-19 06:12:00,
2013-03-19 02:22:00,34.0,33.0,29.80,North,0,0.0,4.0,97,0.10,,,0.40,,2013-03-19 06:22:00,
2013-03-19 02:32:00,34.0,33.0,29.79,North,0,0.0,5.0,97,0.11,,,0.42,,2013-03-19 06:32:00,
2013-03-19 02:42:00,34.0,33.0,29.79,North,0,0.0,5.0,97,0.11,,,0.42,,2013-03-19 06:42:00,
2013-03-19 02:52:00,34.0,33.0,29.79,North,0,0.0,3.0,97,0.12,,,0.43,,2013-03-19 06:52:00,
2013-03-19 03:02:00,34.0,33.0,29.78,North,0,0.0,4.0,97,0.07,,,0.43,,2013-03-19 07:02:00,
2013-03-19 03:12:00,34.0,33.0,29.78,North,0,0.0,4.0,97,0.07,,,0.43,,2013-03-19 07:12:00,
2013-03-19 03:22:00,34.0,33.0,29.77,North,0,0.0,6.0,97,0.03,,,0.43,,2013-03-19 07:22:00,
2013-03-19 03:32:00,34.0,33.0,29.76,North,0,0.0,4.0,97,0.01,,,0.43,,2013-03-19 07:32:00,
2013-03-19 03:42:00,34.0,33.0,29.76,North,0,0.0,4.0,97,0.01,,,0.43,,2013-03-19 07:42:00,
2013-03-19 03:53:00,34.0,33.0,29.77,North,0,0.0,3.0,97,0.00,,,0.43,,2013-03-19 07:53:00,
2013-03-19 04:03:00,34.0,33.0,29.76,North,0,0.0,4.0,97,0.01,,,0.44,,2013-03-19 08:03:00,
2013-03-19 04:12:00,34.0,33.0,29.76,North,0,0.0,4.0,97,0.01,,,0.44,,2013-03-19 08:12:00,
2013-03-19 04:22:00,34.0,33.0,29.75,North,0,0.0,4.0,97,0.01,,,0.44,,2013-03-19 08:22:00,
2013-03-19 04:32:00,34.0,33.0,29.74,North,0,0.0,2.0,97,0.01,,,0.44,,2013-03-19 08:32:00,
2013-03-19 04:42:00,34.0,33.0,29.74,North,0,0.0,2.0,97,0.01,,,0.44,,2013-03-19 08:42:00,
2013-03-19 04:52:00,34.0,33.0,29.73,North,0,0.0,2.0,97,0.01,,,0.44,,2013-03-19 08:52:00,
2013-03-19 05:02:00,34.0,33.0,29.73,North,0,0.0,6.0,97,0.00,,,0.44,,2013-03-19 09:02:00,
2013-03-19 05:12:00,34.0,33.0,29.73,North,0,0.0,6.0,97,0.00,,,0.44,,2013-03-19 09:12:00,
2013-03-19 05:22:00,34.0,33.0,29.73,North,0,0.0,0.0,97,0.00,,,0.44,,2013-03-19 09:22:00,
2013-03-19 05:32:00,34.0,33.0,29.73,North,0,0.0,3.0,97,0.00,,,0.44,,2013-03-19 09:32:00,
2013-03-19 05:43:00,34.0,33.0,29.73,North,0,0.0,3.0,97,0.00,,,0.44,,2013-03-19 09:43:00,
2013-03-19 05:53:00,34.0,33.0,29.72,North,0,0.0,3.0,97,0.01,,,0.45,,2013-03-19 09:53:00,
2013-03-19 06:03:00,34.0,33.0,29.72,North,0,0.0,3.0,97,0.01,,,0.45,,2013-03-19 10:03:00,
2013-03-19 06:13:00,34.0,33.0,29.72,North,0,0.0,3.0,97,0.01,,,0.45,,2013-03-19 10:13:00,
2013-03-19 06:23:00,34.0,33.0,29.72,North,0,0.0,3.0,97,0.01,,,0.45,,2013-03-19 10:23:00,
2013-03-19 06:32:00,34.0,33.0,29.72,North,0,0.0,1.0,97,0.01,,,0.45,,2013-03-19 10:32:00,
2013-03-19 06:42:00,34.0,33.0,29.72,North,0,0.0,1.0,97,0.01,,,0.45,,2013-03-19 10:42:00,
2013-03-19 06:53:00,34.0,33.0,29.72,North,0,0.0,1.0,97,0.00,,,0.45,,2013-03-19 10:53:00,
2013-03-19 07:02:00,34.0,33.0,29.71,North,0,0.0,1.0,97,0.01,,,0.46,,2013-03-19 11:02:00,
2013-03-19 07:12:00,34.0,33.0,29.71,North,0,0.0,1.0,97,0.01,,,0.46,,2013-03-19 11:12:00,
2013-03-19 07:22:00,34.0,33.0,29.72,North,0,0.0,5.0,97,0.01,,,0.46,,2013-03-19 11:22:00,
2013-03-19 07:33:00,33.0,32.0,29.72,North,0,0.0,2.0,97,0.01,,,0.46,,2013-03-19 11:33:00,
2013-03-19 07:43:00,33.0,32.0,29.72,North,0,0.0,2.0,97,0.01,,,0.46,,2013-03-19 11:43:00,
2013-03-19 07:53:00,33.0,32.0,29.71,North,0,0.0,3.0,97,0.01,,,0.46,,2013-03-19 11:53:00,
2013-03-19 08:02:00,33.0,32.0,29.72,North,0,0.0,0.0,97,0.00,,,0.46,,2013-03-19 12:02:00,
2013-03-19 08:12:00,33.0,32.0,29.72,North,0,0.0,0.0,97,0.00,,,0.46,,2013-03-19 12:12:00,
2013-03-19 08:22:00,33.0,32.0,29.72,North,0,0.0,0.0,97,0.00,,,0.46,,2013-03-19 12:22:00,
2013-03-19 08:33:00,33.0,32.0,29.73,North,0,0.0,0.0,97,0.00,,,0.46,,2013-03-19 12:33:00,
2013-03-19 08:42:00,33.0,32.0,29.73,North,0,0.0,0.0,97,0.00,,,0.46,,2013-03-19 12:42:00,
2013-03-19 08:52:00,33.0,32.0,29.73,North,0,0.0,0.0,97,0.01,,,0.47,,2013-03-19 12:52:00,
2013-03-19 09:02:00,33.0,32.0,29.74,North,0,0.0,0.0,97,0.01,,,0.47,,2013-03-19 13:02:00,
2013-03-19 09:12:00,33.0,32.0,29.74,North,0,0.0,0.0,97,0.01,,,0.47,,2013-03-19 13:12:00,
2013-03-19 09:22:00,33.0,32.0,29.75,North,0,0.0,3.0,97,0.02,,,0.48,,2013-03-19 13:22:00,
2013-03-19 09:33:00,34.0,33.0,29.76,North,0,0.0,2.0,97,0.03,,,0.49,,2013-03-19 13:33:00,
2013-03-19 09:42:00,34.0,33.0,29.76,North,0,0.0,2.0,97,0.03,,,0.49,,2013-03-19 13:42:00,
2013-03-19 09:53:00,34.0,33.0,29.75,North,0,0.0,1.0,97,0.02,,,0.49,,2013-03-19 13:53:00,
2013-03-19 10:02:00,34.0,33.0,29.75,North,0,0.0,2.0,97,0.03,,,0.50,,2013-03-19 14:02:00,
2013-03-19 10:12:00,34.0,33.0,29.75,North,0,0.0,2.0,97,0.03,,,0.50,,2013-03-19 14:12:00,
2013-03-19 10:22:00,34.0,33.0,29.75,North,0,0.0,3.0,97,0.03,,,0.51,,2013-03-19 14:22:00,
2013-03-19 10:32:00,34.0,33.0,29.74,North,0,0.0,3.0,97,0.03,,,0.52,,2013-03-19 14:32:00,
2013-03-19 10:42:00,34.0,33.0,29.74,North,0,0.0,3.0,97,0.03,,,0.52,,2013-03-19 14:42:00,
2013-03-19 10:53:00,35.0,34.0,29.75,North,0,0.0,1.0,97,0.04,,,0.53,,2013-03-19 14:53:00,
2013-03-19 11:02:00,35.0,34.0,29.75,North,0,0.0,4.0,98,0.03,,,0.53,,2013-03-19 15:02:00,
2013-03-19 11:12:00,35.0,34.0,29.75,North,0,0.0,4.0,98,0.03,,,0.53,,2013-03-19 15:12:00,
2013-03-19 11:22:00,36.0,35.0,29.75,North,0,0.0,5.0,98,0.03,,,0.54,,2013-03-19 15:22:00,
2013-03-19 11:34:00,36.0,35.0,29.74,North,0,0.0,3.0,98,0.04,,,0.56,,2013-03-19 15:34:00,
2013-03-19 11:43:00,36.0,35.0,29.74,North,0,0.0,3.0,98,0.04,,,0.56,,2013-03-19 15:43:00,
2013-03-19 11:54:00,38.0,37.0,29.74,North,0,0.0,3.0,98,0.04,,,0.57,,2013-03-19 15:54:00,
2013-03-19 12:04:00,39.0,38.0,29.74,North,0,0.0,3.0,98,0.06,,,0.59,,2013-03-19 16:04:00,
2013-03-19 12:13:00,39.0,38.0,29.74,North,0,0.0,3.0,98,0.06,,,0.59,,2013-03-19 16:13:00,
2013-03-19 12:24:00,40.0,39.0,29.74,North,0,0.0,7.0,98,0.06,,,0.60,,2013-03-19 16:24:00,
2013-03-19 12:34:00,42.0,41.0,29.73,North,0,0.0,1.0,98,0.05,,,0.61,,2013-03-19 16:34:00,
2013-03-19 12:44:00,42.0,41.0,29.73,North,0,0.0,1.0,98,0.05,,,0.61,,2013-03-19 16:44:00,
2013-03-19 12:54:00,43.0,42.0,29.72,North,0,0.0,5.0,97,0.06,,,0.63,,2013-03-19 16:54:00,
2013-03-19 13:03:00,44.0,43.0,29.72,North,0,0.0,9.0,97,0.05,,,0.64,,2013-03-19 17:03:00,
2013-03-19 13:13:00,45.0,43.0,29.70,North,0,0.0,5.0,94,0.05,,,0.65,,2013-03-19 17:13:00,
2013-03-19 13:23:00,45.0,43.0,29.70,North,0,0.0,5.0,94,0.05,,,0.65,,2013-03-19 17:23:00,
2013-03-19 13:34:00,46.0,42.0,29.70,North,1,2.0,10.0,87,0.05,,,0.66,,2013-03-19 17:34:00,
2013-03-19 13:44:00,46.0,42.0,29.70,North,1,2.0,10.0,87,0.05,,,0.66,,2013-03-19 17:44:00,
2013-03-19 13:53:00,46.0,40.0,29.70,NNE,33,2.0,13.0,80,0.04,,,0.67,,2013-03-19 17:53:00,
2013-03-19 14:03:00,46.0,40.0,29.71,North,9,3.0,13.0,79,0.03,,,0.67,,2013-03-19 18:03:00,
2013-03-19 14:13:00,46.0,40.0,29.71,North,9,3.0,13.0,79,0.03,,,0.67,,2013-03-19 18:13:00,
2013-03-19 14:23:00,47.0,39.0,29.70,NNW,332,2.0,13.0,75,0.03,,,0.68,,2013-03-19 18:23:00,
2013-03-19 14:33:00,48.0,39.0,29.70,North,0,0.0,16.0,70,0.02,,,0.68,,2013-03-19 18:33:00,
2013-03-19 14:43:00,48.0,39.0,29.70,North,0,0.0,16.0,70,0.02,,,0.68,,2013-03-19 18:43:00,
2013-03-19 14:53:00,47.0,38.0,29.70,North,0,0.0,8.0,71,0.01,,,0.68,,2013-03-19 18:53:00,
2013-03-19 15:02:00,49.0,38.0,29.70,NNE,21,1.0,5.0,66,0.01,,,0.68,,2013-03-19 19:02:00,
2013-03-19 15:12:00,49.0,38.0,29.70,NNE,21,1.0,5.0,66,0.01,,,0.68,,2013-03-19 19:12:00,
2013-03-19 15:22:00,47.0,35.0,29.70,NNE,13,2.0,14.0,63,0.00,,,0.68,,2013-03-19 19:22:00,
2013-03-19 15:33:00,47.0,35.0,29.70,North,358,1.0,7.0,64,0.00,,,0.68,,2013-03-19 19:33:00,
2013-03-19 15:43:00,47.0,35.0,29.70,North,358,1.0,7.0,64,0.00,,,0.68,,2013-03-19 19:43:00,
2013-03-19 15:53:00,48.0,36.0,29.69,North,349,1.0,10.0,63,0.00,,,0.68,,2013-03-19 19:53:00,
2013-03-19 16:03:00,48.0,37.0,29.69,North,0,0.0,7.0,65,0.00,,,0.68,,2013-03-19 20:03:00,
2013-03-19 16:12:00,48.0,37.0,29.68,North,0,0.0,12.0,65,0.00,,,0.68,,2013-03-19 20:12:00,
2013-03-19 16:22:00,48.0,37.0,29.68,North,0,0.0,12.0,65,0.00,,,0.68,,2013-03-19 20:22:00,
2013-03-19 16:32:00,49.0,37.0,29.67,North,0,0.0,4.0,62,0.00,,,0.68,,2013-03-19 20:32:00,
2013-03-19 16:43:00,49.0,37.0,29.67,North,0,0.0,4.0,62,0.00,,,0.68,,2013-03-19 20:43:00,
2013-03-19 16:53:00,50.0,37.0,29.67,NW,305,2.0,7.0,60,0.00,,,0.68,,2013-03-19 20:53:00,
2013-03-19 17:02:00,50.0,37.0,29.67,North,0,0.0,10.0,60,0.00,,,0.68,,2013-03-19 21:02:00,
2013-03-19 17:12:00,50.0,36.0,29.67,North,0,0.0,4.0,59,0.00,,,0.68,,2013-03-19 21:12:00,
2013-03-19 17:23:00,50.0,36.0,29.67,North,0,0.0,4.0,59,0.00,,,0.68,,2013-03-19 21:23:00,
2013-03-19 17:34:00,50.0,37.0,29.66,North,0,0.0,4.0,60,0.00,,,0.68,,2013-03-19 21:34:00,
2013-03-19 17:43:00,50.0,37.0,29.66,North,0,0.0,4.0,60,0.00,,,0.68,,2013-03-19 21:43:00,
2013-03-19 17:53:00,50.0,36.0,29.66,NNW,337,1.0,11.0,58,0.00,,,0.68,,2013-03-19 21:53:00,
2013-03-19 18:03:00,50.0,36.0,29.66,North,0,0.0,6.0,59,0.00,,,0.68,,2013-03-19 22:03:00,
2013-03-19 18:13:00,49.0,34.0,29.66,NW,318,3.0,16.0,57,0.00,,,0.68,,2013-03-19 22:13:00,
2013-03-19 18:23:00,49.0,34.0,29.66,NW,318,3.0,16.0,57,0.00,,,0.68,,2013-03-19 22:23:00,
2013-03-19 18:33:00,49.0,32.0,29.67,North,0,0.0,12.0,51,0.00,,,0.68,,2013-03-19 22:33:00,
2013-03-19 18:43:00,49.0,31.0,29.68,North,351,3.0,14.0,49,0.00,,,0.68,,2013-03-19 22:43:00,
2013-03-19 18:53:00,49.0,31.0,29.68,North,351,3.0,14.0,49,0.00,,,0.68,,2013-03-19 22:53:00,
2013-03-19 19:03:00,49.0,29.0,29.68,NNW,328,3.0,11.0,46,0.00,,,0.68,,2013-03-19 23:03:00,
2013-03-19 19:12:00,48.0,27.0,29.69,NNW,345,1.0,12.0,44,0.00,,,0.68,,2013-03-19 23:12:00,
2013-03-19 19:22:00,48.0,27.0,29.69,NNW,345,1.0,12.0,44,0.00,,,0.68,,2013-03-19 23:22:00,
2013-03-19 19:32:00,47.0,27.0,29.70,North,357,2.0,15.0,45,0.00,,,0.68,,2013-03-19 23:32:00,
2013-03-19 19:42:00,47.0,27.0,29.70,North,357,2.0,15.0,45,0.00,,,0.68,,2013-03-19 23:42:00,
2013-03-19 19:53:00,47.0,28.0,29.71,North,0,0.0,10.0,47,0.00,,,0.67,,2013-03-19 23:53:00,
2013-03-19 20:03:00,46.0,27.0,29.71,NNE,15,1.0,10.0,47,0.00,,,0.66,,2013-03-20 00:03:00,
2013-03-19 20:13:00,46.0,27.0,29.71,NNE,15,1.0,10.0,47,0.00,,,0.66,,2013-03-20 00:13:00,
2013-03-19 20:22:00,45.0,27.0,29.72,North,360,2.0,14.0,48,0.00,,,0.65,,2013-03-20 00:22:00,
2013-03-19 20:33:00,44.0,26.0,29.73,North,2,1.0,14.0,48,0.00,,,0.63,,2013-03-20 00:33:00,
2013-03-19 20:42:00,44.0,26.0,29.73,North,2,1.0,14.0,48,0.00,,,0.63,,2013-03-20 00:42:00,
2013-03-19 20:52:00,44.0,26.0,29.75,North,4,2.0,14.0,48,0.00,,,0.60,,2013-03-20 00:52:00,
2013-03-19 21:03:00,43.0,24.0,29.76,North,4,3.0,16.0,46,0.00,,,0.57,,2013-03-20 01:03:00,
2013-03-19 21:12:00,42.0,23.0,29.77,NNE,19,2.0,15.0,47,0.00,,,0.54,,2013-03-20 01:12:00,
2013-03-19 21:22:00,42.0,23.0,29.77,NNE,19,2.0,15.0,47,0.00,,,0.54,,2013-03-20 01:22:00,
2013-03-19 21:32:00,41.0,24.0,29.78,North,0,0.0,13.0,51,0.00,,,0.52,,2013-03-20 01:32:00,
2013-03-19 21:42:00,41.0,24.0,29.78,North,0,0.0,13.0,51,0.00,,,0.52,,2013-03-20 01:42:00,
2013-03-19 21:53:00,40.0,25.0,29.79,NNE,19,3.0,14.0,55,0.00,,,0.50,,2013-03-20 01:53:00,
2013-03-19 22:02:00,38.0,24.0,29.80,NNE,18,5.0,13.0,57,0.00,,,0.48,,2013-03-20 02:02:00,
2013-03-19 22:12:00,38.0,24.0,29.80,NNE,18,5.0,13.0,57,0.00,,,0.48,,2013-03-20 02:12:00,
2013-03-19 22:22:00,38.0,25.0,29.80,NNE,12,3.0,15.0,59,0.00,,,0.46,,2013-03-20 02:22:00,
2013-03-19 22:32:00,37.0,24.0,29.80,North,7,2.0,12.0,59,0.00,,,0.46,,2013-03-20 02:32:00,
2013-03-19 22:42:00,37.0,24.0,29.80,North,7,2.0,12.0,59,0.00,,,0.46,,2013-03-20 02:42:00,
2013-03-19 22:53:00,36.0,23.0,29.81,North,6,2.0,9.0,59,0.00,,,0.45,,2013-03-20 02:53:00,
2013-03-19 23:02:00,36.0,23.0,29.81,NNE,14,1.0,9.0,60,0.00,,,0.44,,2013-03-20 03:02:00,
2013-03-19 23:12:00,36.0,23.0,29.82,NNE,19,2.0,10.0,60,0.00,,,0.43,,2013-03-20 03:12:00,
2013-03-19 23:22:00,36.0,23.0,29.82,NNE,19,2.0,10.0,60,0.00,,,0.43,,2013-03-20 03:22:00,
2013-03-19 23:34:00,35.0,23.0,29.82,North,360,1.0,12.0,60,0.00,,,0.43,,2013-03-20 03:34:00,
2013-03-19 23:43:00,35.0,23.0,29.82,North,360,1.0,12.0,60,0.00,,,0.43,,2013-03-20 03:43:00,
2013-03-19 23:53:00,35.0,23.0,29.83,North,6,1.0,10.0,61,0.00,,,0.42,,2013-03-20 03:53:00,